Temperature
13 12 12 11 11 10 10 10 10 10 9 9 9 9 9 8 8 8 7 7 7 6 6 5 5 4 4 3 3 2 2 1 -0 0 -0 -0 -1 -1 -1 -2 -2 -2 -3
13 12 12 11 10 10 10 9 9 9 9 9 9 8 8 8 8 7 7 7 6 6 5 5 5 4 3 3 2 2 1 0 -1 -1 -1 -1 -1 -2 -2 -2 -3 -3 -3
12 12 11 11 10 10 9 9 9 9 9 9 8 8 8 8 7 7 6 6 6 5 5 4 4 3 3 2 2 1 1 -0 -1 -1 -2 -2 -2 -2 -3 -3 -3 -4 -4
12 12 11 11 10 10 9 9 9 9 9 8 8 8 7 7 7 6 6 6 5 5 4 4 3 3 2 2 1 0 -0 -1 -1 -2 -2 -2 -3 -3 -4 -4 -4 -4 -4
12 12 11 11 10 9 9 9 8 8 8 8 8 7 7 7 6 6 5 5 5 4 4 3 2 2 1 1 0 -0 -1 -2 -2 -3 -3 -3 -3 -4 -4 -4 -5 -5 -5
12 11 11 10 9 9 9 8 8 8 8 7 7 7 6 6 6 5 5 4 4 3 3 2 2 1 1 0 -1 -1 -2 -2 -3 -3 -4 -4 -4 -4 -5 -5 -5 -6 -6
11 11 10 10 9 9 8 8 8 7 7 7 7 6 6 6 5 4 4 4 3 2 2 1 1 1 0 -0 -1 -1 -2 -2 -3 -4 -4 -4 -5 -5 -5 -5 -6 -6 -6
11 10 10 9 9 8 8 7 7 7 7 6 6 6 5 5 4 4 3 3 2 2 1 1 0 -0 -1 -1 -2 -2 -2 -3 -3 -4 -4 -5 -5 -5 -6 -6 -6 -6 -6
11 10 9 9 8 8 7 7 7 6 6 6 5 5 4 4 4 3 2 2 1 1 1 -0 -1 -1 -1 -2 -3 -3 -3 -4 -4 -5 -5 -5 -6 -6 -6 -6 -7 -7 -7
10 10 9 8 8 7 7 6 6 6 5 5 4 4 4 3 3 2 2 1 1 0 -0 -1 -1 -2 -2 -3 -4 -4 -4 -5 -5 -5 -6 -6 -6 -6 -7 -7 -7 -8 -8
10 9 8 8 7 7 6 6 5 5 4 4 4 3 3 2 2 1 1 0 -0 -1 -1 -2 -2 -3 -3 -4 -4 -5 -5 -5 -6 -6 -6 -7 -7 -7 -7 -8 -8 -8 -8
9 9 8 7 7 6 5 5 4 4 4 3 3 3 2 2 1 1 -0 -1 -1 -2 -2 -3 -3 -4 -4 -5 -5 -6 -6 -6 -7 -7 -7 -7 -7 -8 -8 -8 -8 -8 -9
9 8 7 7 6 5 5 4 4 3 3 2 2 2 1 1 0 -0 -1 -1 -2 -3 -3 -4 -4 -5 -6 -6 -6 -7 -7 -7 -7 -8 -8 -8 -8 -8 -9 -9 -9 -9 -9
8 7 7 6 5 4 4 3 3 3 2 2 1 1 1 0 -0 -1 -2 -2 -3 -4 -4 -5 -5 -6 -6 -7 -7 -7 -8 -8 -8 -9 -9 -9 -9 -9 -9 -9 -9 -9 -9
7 6 6 5 4 4 3 3 2 2 2 1 1 -0 -1 -1 -2 -2 -3 -4 -4 -5 -5 -6 -6 -7 -7 -8 -8 -8 -9 -9 -9 -9 -9 -9 -9 -9 -10 -10 -10 -10 -10
6 6 5 4 4 3 3 2 2 1 1 0 -0 -1 -2 -2 -3 -3 -4 -5 -5 -6 -6 -7 -7 -8 -8 -9 -9 -9 -9 -9 -10 -10 -10 -10 -10 -10 -10 -10 -10 -10 -10
6 5 4 4 3 3 2 2 1 1 0 -0 -1 -2 -2 -3 -4 -5 -5 -6 -6 -7 -7 -8 -8 -9 -9 -10 -10 -10 -10 -10 -10 -10 -10 -10 -10 -10 -11 -11 -11 -10 -10
5 4 4 3 2 2 2 1 1 0 -0 -1 -2 -3 -3 -4 -5 -6 -6 -7 -7 -8 -8 -9 -9 -10 -10 -10 -10 -10 -10 -10 -10 -11 -11 -11 -11 -11 -11 -11 -11 -11 -11
4 3 3 2 2 1 1 0 -0 -1 -2 -2 -3 -4 -4 -5 -6 -6 -7 -8 -8 -9 -9 -9 -10 -10 -10 -11 -11 -11 -11 -11 -11 -11 -11 -11 -11 -11 -11 -11 -11 -11 -11
3 3 2 2 1 1 0 -1 -1 -2 -3 -3 -4 -5 -6 -6 -7 -7 -8 -8 -9 -9 -10 -10 -10 -10 -11 -11 -11 -11 -11 -11 -11 -11 -11 -11 -11 -11 -11 -11 -11 -11 -11
2 2 1 1 0 -0 -1 -2 -2 -3 -4 -4 -5 -6 -7 -8 -8 -8 -9 -9 -9 -10 -10 -10 -10 -11 -11 -11 -11 -11 -11 -11 -12 -12 -12 -12 -12 -12 -12 -12 -12 -11 -11
2 1 1 0 -0 -1 -2 -2 -3 -4 -5 -5 -6 -6 -7 -8 -8 -9 -9 -9 -10 -10 -10 -11 -11 -11 -11 -11 -12 -12 -12 -12 -12 -12 -12 -12 -12 -12 -12 -12 -12 -12 -11
1 0 -0 -1 -1 -2 -3 -3 -4 -5 -5 -6 -7 -7 -8 -8 -9 -9 -9 -10 -10 -10 -10 -11 -11 -11 -11 -11 -12 -12 -12 -12 -12 -12 -12 -12 -12 -12 -12 -12 -12 -12 -12
0 -0 -1 -1 -2 -3 -3 -4 -5 -5 -6 -6 -7 -8 -8 -9 -9 -9 -10 -10 -10 -10 -11 -11 -11 -11 -11 -11 -11 -12 -12 -12 -12 -12 -12 -12 -12 -12 -12 -12 -12 -12 -12
-1 -1 -2 -2 -3 -4 -4 -5 -5 -6 -7 -7 -8 -8 -9 -9 -9 -10 -10 -10 -11 -11 -11 -11 -11 -11 -11 -11 -11 -11 -11 -12 -12 -12 -12 -12 -12 -12 -12 -12 -12 -12 -12
-2 -2 -3 -3 -4 -4 -5 -5 -6 -7 -7 -8 -8 -9 -9 -9 -10 -10 -10 -10 -11 -11 -11 -11 -11 -11 -11 -11 -11 -11 -11 -12 -12 -12 -12 -12 -12 -12 -12 -12 -12 -12 -12
Wind_Speed
9 9 9 9 9 9 9 10 10 9 10 11 10 9 9 8 8 7 7 6 7 6 5 6 6 5 4 4 4 4 5 5 8 7 5 4 5 7 11 14 15 14 15
9 9 9 8 8 9 9 9 9 10 10 10 10 9 9 8 8 8 8 7 7 7 7 6 7 5 5 5 4 5 6 6 7 10 6 4 6 7 7 7 10 13 13
8 9 8 8 9 9 9 9 9 9 9 9 9 10 9 8 8 8 8 7 7 7 7 7 7 6 6 6 6 6 6 6 6 7 8 5 5 5 6 7 7 8 13
9 9 9 9 9 9 8 8 8 9 9 9 9 9 8 7 7 7 7 7 7 7 7 7 7 7 8 7 6 7 7 7 6 7 8 6 5 6 4 6 7 6 8
9 9 9 8 7 7 7 7 7 8 8 8 7 7 6 6 7 7 7 7 7 7 6 6 7 9 11 9 7 6 6 6 6 7 8 6 6 5 5 5 8 8 8
9 9 7 7 7 7 7 7 7 7 6 6 7 7 6 6 9 11 8 6 6 7 7 7 7 8 11 14 16 15 12 8 7 6 7 7 8 7 6 7 7 8 6
9 8 8 8 8 7 7 7 7 7 6 6 6 6 6 6 8 9 10 5 6 6 7 7 6 7 10 7 12 16 15 17 16 10 9 9 8 7 7 8 8 8 9
8 8 8 8 8 7 7 7 6 5 5 5 5 5 5 5 7 8 8 5 5 6 7 7 8 8 8 9 8 8 9 9 12 9 8 9 8 7 8 8 9 8 6
9 8 8 8 8 7 7 6 4 4 4 4 4 4 4 4 6 6 6 3 4 6 6 7 7 8 14 16 10 8 8 8 12 16 17 15 17 18 14 6 5 6 7
9 8 8 8 8 8 7 5 4 4 4 4 3 3 4 3 5 6 6 2 4 5 5 6 10 11 14 16 8 7 9 9 7 8 10 11 10 11 14 6 4 6 6
8 8 7 7 7 7 6 4 5 4 4 3 2 1 2 3 4 6 7 3 4 5 5 5 6 13 15 16 14 7 11 11 6 6 5 6 6 5 5 5 5 5 6
9 8 7 7 6 6 6 5 5 5 4 2 1 1 1 2 3 5 8 8 7 4 5 5 6 13 15 15 12 13 17 14 5 4 5 5 4 4 5 6 6 6 7
9 8 7 7 6 6 6 6 4 4 3 2 1 2 3 2 3 7 9 10 11 6 5 10 12 14 13 10 13 16 13 6 5 5 5 5 4 5 4 4 5 5 6
10 8 7 7 6 5 4 4 4 3 3 2 2 2 3 3 3 4 4 5 8 7 6 8 12 12 10 10 10 8 5 5 5 5 5 4 3 3 3 3 4 4 4
9 8 7 6 6 5 4 3 3 3 3 3 3 2 2 4 5 8 6 4 4 5 5 3 3 3 4 4 4 5 4 4 5 4 4 4 4 4 4 3 3 2 3
9 7 6 5 5 4 4 3 3 2 1 1 1 2 3 6 9 9 10 10 11 10 6 3 4 4 5 5 6 5 4 5 5 5 4 4 4 4 4 4 3 3 4
9 7 6 5 5 4 3 3 1 3 4 4 4 5 6 8 9 10 10 10 10 10 4 3 4 5 5 5 5 5 5 5 4 4 4 4 4 3 4 4 4 4 4
8 8 7 5 4 4 3 2 2 1 1 3 4 6 8 9 9 10 11 8 5 5 3 4 5 5 5 5 5 5 5 5 4 4 4 4 3 3 4 4 4 4 4
8 6 5 5 4 3 3 2 1 1 1 2 3 4 7 8 8 9 8 3 4 4 4 5 5 5 5 5 5 5 5 5 5 4 4 4 3 3 4 4 4 7 5
6 9 7 5 4 3 2 2 1 1 1 2 3 4 4 3 3 4 3 3 4 5 5 5 5 5 5 5 5 5 5 5 5 4 4 4 3 3 4 5 4 4 4
6 6 8 5 3 3 2 2 1 1 2 2 3 5 7 3 3 4 4 4 5 5 5 5 5 6 5 5 5 5 6 5 5 4 4 4 3 4 4 4 4 4 4
6 5 4 4 3 2 2 2 1 1 2 3 4 5 8 4 3 4 5 5 5 5 5 5 5 5 5 5 5 6 6 6 5 4 4 4 4 4 4 4 4 4 4
6 5 4 3 2 2 2 1 1 1 2 3 4 4 4 4 4 5 5 5 5 5 5 5 5 5 5 5 6 6 6 6 5 5 5 5 4 4 4 4 4 4 4
6 5 4 3 2 2 1 1 1 2 3 3 4 4 4 4 5 6 6 6 6 5 5 5 6 7 8 7 7 8 8 9 8 6 7 6 6 5 5 4 5 5 5
5 5 4 3 2 2 1 1 2 2 3 4 4 4 5 5 6 6 6 6 6 6 7 7 6 7 9 10 9 10 12 14 13 9 7 6 7 7 6 6 5 5 5
5 4 3 3 2 1 1 2 2 3 4 4 4 5 5 6 6 6 6 6 6 6 7 6 8 9 10 11 12 14 15 15 15 14 8 5 6 6 6 6 6 6 6
Wind_Direction
180 180 179 181 180 178 185 190 188 184 180 182 184 183 183 185 183 184 194 192 200 211 211 213 227 225 228 231 226 225 225 216 255 273 256 260 263 270 286 290 291 289 291
179 177 179 178 176 181 188 188 183 183 183 183 180 182 186 188 187 191 199 200 205 214 220 221 235 234 237 239 235 238 240 229 240 272 278 267 259 263 266 274 287 290 287
173 173 175 177 179 185 187 182 180 180 179 179 179 185 190 190 192 198 200 205 211 218 220 223 234 232 245 247 244 248 250 253 241 260 278 266 261 264 272 276 277 280 287
171 173 180 184 184 182 178 176 178 176 177 181 186 189 190 190 195 199 201 209 218 225 225 226 231 230 240 247 251 250 252 258 258 262 274 275 266 264 264 276 288 276 281
171 177 184 179 171 167 168 171 171 174 179 179 180 186 188 190 200 200 203 210 218 229 236 237 239 245 252 258 261 255 250 254 260 266 274 278 275 275 271 266 286 289 278
173 178 170 162 161 166 168 165 165 169 169 170 181 187 194 204 214 215 212 210 215 225 240 247 252 259 267 275 279 281 278 271 267 264 271 272 275 268 268 272 283 293 292
169 167 163 162 164 167 163 161 168 171 169 176 184 188 204 218 222 228 227 213 217 227 236 246 260 263 275 267 278 285 286 285 284 280 273 270 273 269 272 278 275 279 283
161 162 161 162 164 161 159 166 167 164 172 179 186 193 206 228 233 239 239 226 228 236 240 243 251 261 266 272 264 268 266 270 278 280 266 266 264 266 262 273 282 285 274
162 164 163 160 158 157 162 165 160 158 168 177 183 189 204 238 245 250 253 227 243 254 256 253 256 259 275 285 282 274 276 275 284 285 285 286 292 299 302 303 299 300 297
167 161 155 154 156 161 163 157 149 156 165 164 176 190 203 234 258 264 264 234 253 264 267 266 274 280 286 292 286 278 281 281 277 284 288 294 296 298 305 302 286 286 290
142 137 139 145 149 149 143 139 138 135 134 145 171 210 224 249 272 279 281 267 252 261 267 268 269 288 294 297 299 287 287 296 288 282 279 279 279 279 282 275 258 254 266
128 129 131 132 132 131 129 126 128 130 132 140 154 281 282 283 289 289 292 293 293 271 268 265 272 294 299 301 302 300 303 311 310 296 287 283 281 280 278 274 267 259 252
125 126 124 119 114 123 130 129 123 124 135 154 178 250 279 287 294 302 302 302 302 295 279 292 298 303 306 305 303 307 312 311 297 290 287 283 274 270 275 284 284 279 277
128 126 124 121 114 110 114 128 134 145 152 174 214 248 270 284 283 282 281 292 298 298 296 300 307 310 312 309 309 310 302 286 288 280 281 276 275 275 278 283 286 297 300
125 124 121 119 122 116 110 125 142 173 178 186 214 222 247 272 281 297 301 288 287 285 305 304 305 307 305 301 298 294 289 290 294 283 278 278 284 288 291 290 279 286 282
131 130 128 125 121 120 116 78 53 66 61 22 333 300 285 296 309 314 315 317 319 320 326 314 305 303 301 301 301 299 292 290 289 288 281 276 281 287 292 296 288 280 284
136 135 130 129 131 130 127 126 85 20 26 14 353 334 322 317 317 318 318 322 321 323 318 301 299 299 297 297 296 293 290 289 285 280 278 278 280 283 290 297 298 294 290
127 131 133 133 133 133 136 139 150 176 317 326 339 336 331 326 323 322 324 330 323 322 293 286 286 287 288 288 288 288 288 289 285 277 272 271 271 278 287 290 290 287 289
128 129 127 126 127 131 132 133 146 187 259 291 310 320 326 324 323 324 329 316 292 290 285 282 281 282 283 283 285 285 284 283 281 275 270 267 268 269 278 284 288 300 304
125 130 129 127 127 129 133 142 167 231 269 284 290 294 304 310 303 304 302 285 281 281 280 279 279 277 277 276 278 280 283 284 282 273 271 270 268 266 273 281 284 287 286
124 127 125 122 131 142 151 169 196 229 259 274 280 297 309 300 287 285 285 281 277 278 279 279 278 278 274 273 271 272 275 277 271 267 266 263 263 268 269 273 280 281 283
126 127 130 135 141 151 160 167 181 232 265 276 283 298 314 314 291 287 285 283 278 277 275 275 276 272 269 268 269 272 274 273 268 261 258 257 260 265 266 269 276 283 285
127 128 127 130 139 141 115 126 195 251 269 278 285 291 297 292 287 286 285 285 282 280 279 276 277 277 273 274 268 261 264 267 264 255 252 257 259 260 260 262 266 274 278
129 132 135 138 137 140 157 200 239 261 270 277 281 283 283 283 284 288 287 285 284 282 281 278 276 276 279 283 281 274 267 266 261 250 241 245 251 255 253 255 259 263 266
129 132 136 141 147 160 186 234 261 273 281 286 286 286 288 289 288 288 286 285 285 285 284 284 281 281 282 282 283 280 281 281 278 263 235 232 240 243 245 249 253 259 259
130 133 137 142 155 180 213 246 266 276 280 285 286 285 286 287 286 287 287 286 287 288 288 287 282 282 284 286 286 287 288 286 285 282 261 230 231 236 236 243 248 250 255
Height
1464 1468 1471 1475 1479 1482 1485 1488 1491 1494 1497 1499 1501 1503 1504 1506 1507 1507 1508 1508 1508 1507 1507 1506 1504 1503 1502 1500 1498 1496 1493 1490 1484 1480 1480 1478 1476 1473 1470 1467 1464 1460 1457
1461 1464 1468 1471 1474 1477 1480 1484 1487 1490 1492 1495 1497 1498 1500 1501 1502 1503 1503 1503 1503 1502 1502 1500 1499 1498 1496 1494 1492 1490 1487 1484 1480 1474 1472 1471 1469 1466 1463 1460 1457 1453 1450
1458 1461 1464 1467 1470 1473 1476 1480 1483 1485 1488 1490 1492 1494 1495 1496 1497 1498 1498 1498 1498 1497 1496 1495 1494 1492 1490 1488 1486 1483 1481 1478 1474 1470 1465 1463 1461 1459 1455 1452 1449 1446 1443
1454 1457 1460 1463 1466 1469 1473 1476 1478 1481 1483 1486 1488 1489 1491 1492 1493 1493 1493 1493 1492 1492 1491 1490 1488 1486 1484 1482 1479 1477 1474 1471 1468 1464 1459 1456 1454 1452 1449 1445 1440 1438 1435
1451 1454 1457 1460 1463 1466 1469 1472 1475 1477 1479 1482 1483 1485 1486 1487 1488 1488 1488 1488 1487 1486 1485 1484 1482 1481 1478 1476 1473 1470 1467 1464 1461 1457 1453 1450 1447 1445 1442 1438 1434 1430 1426
1448 1451 1454 1457 1460 1463 1466 1468 1471 1473 1475 1477 1479 1480 1481 1482 1483 1483 1483 1482 1481 1480 1479 1478 1476 1474 1472 1469 1467 1464 1462 1458 1454 1451 1447 1444 1441 1439 1435 1432 1428 1423 1418
1445 1448 1451 1454 1457 1459 1462 1465 1467 1469 1471 1473 1475 1476 1477 1478 1478 1478 1478 1477 1476 1475 1473 1471 1469 1468 1465 1462 1459 1457 1455 1452 1450 1446 1441 1438 1435 1432 1429 1425 1422 1418 1414
1442 1445 1448 1451 1454 1456 1459 1461 1463 1465 1467 1469 1470 1471 1472 1473 1473 1473 1472 1471 1470 1469 1467 1465 1463 1460 1458 1455 1452 1448 1446 1444 1442 1439 1436 1432 1429 1426 1423 1420 1416 1411 1408
1440 1442 1445 1448 1451 1453 1455 1458 1460 1462 1463 1465 1466 1467 1468 1468 1469 1468 1467 1465 1464 1462 1461 1459 1456 1453 1451 1448 1445 1441 1438 1436 1434 1431 1429 1426 1423 1420 1418 1414 1410 1406 1401
1437 1440 1443 1445 1448 1450 1452 1454 1456 1458 1459 1461 1462 1463 1463 1464 1464 1463 1462 1460 1458 1456 1454 1452 1450 1447 1444 1442 1439 1435 1431 1428 1426 1423 1421 1418 1416 1413 1411 1408 1404 1401 1397
1435 1438 1440 1443 1445 1447 1449 1451 1453 1454 1456 1457 1458 1459 1459 1459 1458 1457 1456 1454 1451 1449 1446 1444 1442 1440 1437 1435 1432 1429 1425 1422 1419 1416 1413 1410 1408 1406 1404 1401 1399 1396 1393
1433 1435 1438 1440 1442 1444 1446 1448 1449 1451 1452 1453 1454 1454 1454 1454 1453 1451 1450 1448 1446 1443 1440 1437 1435 1433 1430 1427 1425 1422 1420 1416 1413 1409 1406 1404 1402 1399 1397 1395 1393 1391 1388
1431 1433 1436 1438 1440 1442 1444 1445 1446 1447 1448 1449 1449 1449 1449 1449 1448 1446 1444 1442 1439 1436 1433 1431 1428 1426 1423 1420 1418 1416 1413 1409 1406 1403 1401 1398 1396 1394 1392 1389 1387 1385 1383
1429 1431 1434 1436 1438 1440 1441 1442 1443 1444 1444 1445 1445 1444 1444 1443 1441 1440 1437 1435 1432 1430 1427 1424 1421 1419 1416 1413 1411 1409 1406 1403 1401 1398 1395 1393 1391 1389 1387 1384 1382 1380 1378
1427 1429 1432 1434 1435 1437 1439 1440 1440 1441 1441 1441 1441 1440 1438 1437 1436 1434 1432 1429 1426 1423 1420 1417 1415 1412 1409 1407 1405 1402 1400 1398 1396 1393 1391 1388 1386 1384 1382 1380 1378 1376 1374
1425 1427 1429 1431 1433 1435 1436 1437 1437 1438 1438 1437 1436 1435 1433 1432 1430 1428 1425 1423 1420 1417 1414 1411 1409 1406 1404 1401 1399 1396 1395 1393 1390 1388 1386 1384 1382 1380 1378 1376 1375 1373 1371
1423 1425 1427 1429 1431 1432 1433 1433 1434 1434 1434 1433 1432 1430 1428 1426 1424 1421 1419 1416 1414 1412 1409 1406 1403 1401 1399 1396 1394 1392 1389 1388 1386 1384 1382 1380 1378 1376 1374 1373 1371 1370 1368
1421 1423 1425 1427 1428 1429 1430 1430 1430 1429 1429 1428 1427 1425 1422 1420 1418 1416 1413 1410 1408 1406 1403 1401 1398 1396 1394 1391 1389 1387 1385 1383 1381 1379 1377 1376 1374 1373 1371 1370 1368 1367 1365
1419 1421 1423 1424 1425 1426 1426 1426 1426 1425 1424 1422 1421 1419 1417 1414 1412 1410 1408 1405 1402 1400 1398 1395 1393 1391 1388 1386 1384 1382 1380 1378 1376 1375 1373 1372 1371 1369 1368 1366 1365 1364 1363
1417 1419 1420 1421 1422 1422 1423 1422 1422 1420 1419 1417 1415 1413 1411 1409 1406 1404 1402 1400 1397 1395 1392 1390 1388 1386 1383 1381 1379 1377 1375 1374 1372 1371 1369 1368 1367 1366 1365 1363 1362 1361 1360
1415 1416 1417 1418 1419 1419 1418 1418 1417 1416 1414 1412 1410 1408 1406 1404 1401 1399 1397 1394 1392 1389 1387 1385 1383 1381 1378 1376 1374 1372 1371 1369 1368 1367 1365 1364 1363 1362 1361 1360 1359 1358 1357
1412 1413 1414 1415 1415 1415 1414 1413 1412 1411 1409 1407 1405 1403 1401 1398 1396 1394 1391 1389 1387 1384 1382 1380 1377 1375 1373 1371 1369 1367 1366 1364 1363 1362 1361 1360 1360 1359 1358 1357 1356 1356 1355
1409 1410 1411 1411 1411 1411 1410 1409 1407 1406 1404 1402 1400 1398 1395 1393 1391 1388 1386 1384 1381 1379 1377 1374 1372 1370 1368 1366 1364 1363 1361 1360 1359 1358 1357 1356 1356 1355 1354 1354 1353 1353 1352
1406 1407 1407 1407 1407 1406 1405 1404 1403 1401 1399 1397 1395 1393 1390 1388 1386 1383 1381 1378 1376 1374 1371 1369 1367 1365 1363 1361 1359 1358 1356 1355 1354 1354 1353 1352 1352 1351 1351 1350 1350 1349 1349
1403 1403 1403 1403 1402 1402 1401 1399 1398 1396 1394 1392 1390 1388 1385 1383 1381 1378 1376 1373 1371 1368 1366 1364 1362 1359 1357 1356 1354 1353 1351 1351 1350 1350 1349 1348 1348 1347 1347 1347 1346 1346 1346
1399 1399 1399 1399 1398 1397 1396 1395 1393 1392 1390 1388 1385 1383 1381 1378 1376 1373 1371 1368 1366 1363 1361 1359 1357 1354 1352 1350 1349 1347 1346 1346 1346 1345 1345 1344 1344 1343 1343 1343 1343 1342 1342